Weather History for Boonville, MO

Change the Weather History Date:

Thursday, November 22, 2012

  Actual Average Record
Temperature  
Mean Temperature 60 °F -  
Max Temperature 73 °F 50 °F 73 °F (2012)
Min Temperature 46 °F 29 °F 11 °F (1964)
Degree Days  
Heating Degree Days 6    
Growing Degree Days 10 (Base 50)    
Moisture  
Dew Point 42 °F    
Average Humidity 56    
Maximum Humidity 72    
Minimum Humidity 39    
Precipitation  
Precipitation 0.00 in - - ()
Sea Level Pressure  
Sea Level Pressure 29.98 in    
Wind  
Wind Speed 11 mph (SSW)    
Max Wind Speed 23 mph    
Max Gust Speed 32 mph    
Visibility 10 miles    
Events Rain    
Averages and records for this station are not official NWS values.
T = Trace of Precipitation, MM = Missing Value Source: NWS Daily Summary

Daily Weather History Graph

Daily Weather History Graph

Search for Another Location

Airport:

Trip Planner

Search our weather history database for the weather conditions in past years. The results will help you decide how hot, cold, wet, or windy it might be!

Date:

Astronomy

Nov. 22, 2012 Rise Set
Actual Time 7:01 AM CST 4:52 PM CST
Civil Twilight 6:32 AM CST 5:21 PM CST
Nautical Twilight 6:00 AM CST 5:53 PM CST
Astronomical Twilight 5:28 AM CST 6:25 PM CST
Moon 1:35 PM CST (11/22) 1:24 AM CST (11/22)
Length of Visible Light 10h 48m
Length of Day
9h 50m
Waxing Gibbous, 71% of the Moon is Illuminated
Nov 22
Waxing Gibbous
Nov 28
Full
Dec 6
Last Quarter
Dec 13
New
Dec 19
First Quarter

Hourly Weather History & Observations

Time (CST) Temp. Windchill Dew Point Humidity Pressure Visibility Wind Dir Wind Speed Gust Speed Precip Events Conditions
12:15 AM 48.9 °F - 35.6 °F 60% 30.05 in 10.0 mi SSE 8.1 mph - N/A   Clear
12:35 AM 47.1 °F - 35.6 °F 64% 30.04 in 10.0 mi SSE 9.2 mph - N/A   Clear
12:55 AM 46.2 °F 41.7 °F 35.8 °F 67% 30.04 in 10.0 mi SSE 9.2 mph - N/A   Clear
1:15 AM 46.6 °F - 36.0 °F 67% 30.03 in 10.0 mi SSE 10.4 mph - N/A   Clear
1:35 AM 48.0 °F - 36.5 °F 64% 30.03 in 10.0 mi SSE 10.4 mph - N/A   Clear
1:55 AM 48.6 °F - 36.7 °F 64% 30.03 in 10.0 mi SSE 10.4 mph - N/A   Clear
2:15 AM 48.4 °F - 37.2 °F 65% 30.03 in 10.0 mi SSE 10.4 mph - N/A   Clear
2:55 AM 49.1 °F - 37.6 °F 64% 30.01 in 10.0 mi South 11.5 mph - N/A   Clear
3:15 AM 49.5 °F - 37.8 °F 64% 30.01 in 10.0 mi South 11.5 mph - N/A   Clear
3:35 AM 50.4 °F - 38.1 °F 63% 30.00 in 10.0 mi South 11.5 mph - N/A   Clear
3:55 AM 50.5 °F - 38.1 °F 62% 30.00 in 10.0 mi SSE 11.5 mph - N/A   Clear
4:15 AM 50.9 °F - 38.1 °F 62% 29.99 in 10.0 mi SSE 11.5 mph - N/A   Clear
4:35 AM 51.1 °F - 37.9 °F 61% 29.98 in 10.0 mi SSE 13.8 mph - N/A   Scattered Clouds
4:55 AM 51.1 °F - 38.3 °F 62% 29.98 in 10.0 mi SSE 11.5 mph - N/A   Clear
5:15 AM 51.1 °F - 37.9 °F 61% 29.98 in 10.0 mi SSE 10.4 mph - N/A   Clear
5:35 AM 51.4 °F - 37.9 °F 60% 29.96 in 10.0 mi SSE 11.5 mph - N/A   Scattered Clouds
5:55 AM 52.0 °F - 38.3 °F 60% 29.96 in 10.0 mi SSE 12.7 mph 17.3 mph N/A   Mostly Cloudy
6:15 AM 52.7 °F - 38.5 °F 58% 29.96 in 10.0 mi SSE 11.5 mph - N/A   Overcast
6:35 AM 52.9 °F - 38.8 °F 59% 29.96 in 10.0 mi South 13.8 mph - N/A   Overcast
6:55 AM 53.2 °F - 39.2 °F 59% 29.96 in 10.0 mi South 12.7 mph - N/A   Mostly Cloudy
7:15 AM 53.1 °F - 39.7 °F 61% 29.96 in 10.0 mi SSE 11.5 mph - N/A   Scattered Clouds
7:35 AM 53.6 °F - 40.1 °F 60% 29.96 in 10.0 mi SSE 11.5 mph - N/A   Scattered Clouds
7:55 AM 54.5 °F - 40.3 °F 59% 29.96 in 10.0 mi South 12.7 mph - N/A   Mostly Cloudy
8:15 AM 55.4 °F - 40.6 °F 58% 29.96 in 10.0 mi South 15.0 mph - N/A   Mostly Cloudy
8:35 AM 56.5 °F - 40.6 °F 55% 29.96 in 10.0 mi South 13.8 mph 17.3 mph N/A   Scattered Clouds
8:55 AM 57.7 °F - 41.4 °F 54% 29.96 in 10.0 mi South 13.8 mph - N/A   Clear
9:15 AM 60.3 °F - 42.1 °F 51% 29.95 in 10.0 mi South 11.5 mph - N/A   Clear
9:35 AM 60.8 °F - 41.9 °F 50% 29.95 in 10.0 mi South 11.5 mph - N/A   Clear
9:55 AM 60.6 °F - 43.3 °F 53% 29.95 in 10.0 mi South 11.5 mph - N/A   Clear
10:15 AM 61.9 °F - 44.2 °F 52% 29.95 in 10.0 mi South 10.4 mph 17.3 mph N/A   Clear
10:35 AM 64.0 °F - 44.2 °F 49% 29.95 in 10.0 mi South 13.8 mph 18.4 mph N/A   Clear
10:55 AM 66.0 °F - 44.4 °F 46% 29.94 in 10.0 mi South 13.8 mph 21.9 mph N/A   Clear
11:15 AM 68.0 °F - 45.1 °F 44% 29.93 in 10.0 mi South 12.7 mph 19.6 mph N/A   Clear
11:35 AM 70.0 °F - 45.5 °F 41% 29.92 in 10.0 mi SSW 12.7 mph 19.6 mph N/A   Clear
11:55 AM 71.1 °F - 46.0 °F 41% 29.90 in 10.0 mi South 15.0 mph 21.9 mph N/A   Clear
12:15 PM 71.1 °F - 46.8 °F 42% 29.89 in 10.0 mi SSW 21.9 mph 31.1 mph N/A   Clear
12:35 PM 71.2 °F - 46.8 °F 42% 29.88 in 10.0 mi SSW 11.5 mph 26.5 mph N/A   Clear
12:55 PM 72.0 °F - 47.1 °F 41% 29.88 in 10.0 mi SSW 12.7 mph 26.5 mph N/A   Clear
1:15 PM 73.0 °F - 46.4 °F 39% 29.88 in 10.0 mi SW 19.6 mph 29.9 mph N/A   Scattered Clouds
1:35 PM 71.8 °F - 46.2 °F 40% 29.87 in 10.0 mi SW 18.4 mph 32.2 mph N/A   Scattered Clouds
1:55 PM 70.5 °F - 46.4 °F 42% 29.87 in 10.0 mi SW 12.7 mph 21.9 mph N/A   Scattered Clouds
2:15 PM 70.3 °F - 46.4 °F 42% 29.88 in 10.0 mi SW 13.8 mph 26.5 mph N/A   Clear
2:35 PM 69.8 °F - 46.2 °F 43% 29.88 in 10.0 mi SW 16.1 mph 21.9 mph N/A   Clear
2:55 PM 69.1 °F - 46.2 °F 44% 29.88 in 10.0 mi SSW 9.2 mph 20.7 mph N/A   Clear
3:15 PM 68.5 °F - 46.8 °F 46% 29.88 in 10.0 mi SW 10.4 mph - N/A   Clear
3:35 PM 68.2 °F - 46.8 °F 46% 29.90 in 10.0 mi SW 15.0 mph 21.9 mph N/A   Clear
3:55 PM 67.6 °F - 47.1 °F 48% 29.90 in 10.0 mi SSW 10.4 mph 17.3 mph N/A   Mostly Cloudy
4:15 PM 64.9 °F - 49.8 °F 58% 29.90 in 10.0 mi SW 9.2 mph 17.3 mph N/A   Overcast
4:35 PM 64.0 °F - 50.5 °F 61% 29.93 in 10.0 mi SW 5.8 mph - N/A Rain Light Rain
4:55 PM 62.4 °F - 52.0 °F 69% 29.94 in 10.0 mi SW 6.9 mph - N/A Rain Light Rain
5:15 PM 61.7 °F - 52.2 °F 71% 29.94 in 10.0 mi SW 4.6 mph - N/A   Overcast
5:35 PM 61.7 °F - 52.2 °F 71% 29.95 in 10.0 mi SSW 5.8 mph - N/A   Overcast
5:55 PM 61.5 °F - 52.3 °F 72% 29.96 in 10.0 mi SSW 4.6 mph - N/A   Overcast
6:15 PM 61.5 °F - 52.0 °F 71% 29.96 in 10.0 mi SW 6.9 mph - N/A   Overcast
6:35 PM 61.7 °F - 51.8 °F 70% 29.98 in 10.0 mi SW 6.9 mph - N/A   Overcast
6:55 PM 61.7 °F - 51.4 °F 69% 29.99 in 10.0 mi WSW 6.9 mph - N/A   Overcast
7:15 PM 62.2 °F - 51.1 °F 67% 30.00 in 10.0 mi West 13.8 mph 21.9 mph N/A   Overcast
7:55 PM 59.9 °F - 45.1 °F 58% 30.03 in 10.0 mi NW 15.0 mph 25.3 mph N/A   Scattered Clouds
8:15 PM 58.5 °F - 40.6 °F 52% 30.05 in 10.0 mi NW 23.0 mph 32.2 mph N/A   Mostly Cloudy
8:35 PM 56.7 °F - 38.7 °F 51% 30.08 in 10.0 mi NW 18.4 mph 23.0 mph N/A   Mostly Cloudy
8:55 PM 54.7 °F - 38.1 °F 54% 30.10 in 10.0 mi NW 15.0 mph 29.9 mph N/A   Scattered Clouds
9:15 PM 53.4 °F - 37.8 °F 55% 30.12 in 10.0 mi NW 16.1 mph 24.2 mph N/A   Scattered Clouds
9:35 PM 52.0 °F - 37.6 °F 58% 30.13 in 10.0 mi NW 9.2 mph - N/A   Clear
9:55 PM 51.1 °F - 37.2 °F 59% 30.13 in 10.0 mi NW 16.1 mph 23.0 mph N/A   Clear
10:15 PM 50.7 °F - 36.5 °F 58% 30.14 in 10.0 mi NNW 10.4 mph 19.6 mph N/A   Clear
10:35 PM 49.8 °F - 36.1 °F 59% 30.16 in 10.0 mi NNW 9.2 mph - N/A   Clear
10:55 PM 48.7 °F - 36.1 °F 62% 30.17 in 10.0 mi NW 13.8 mph 18.4 mph N/A   Clear
11:15 PM 48.4 °F - 34.0 °F 58% 30.18 in 10.0 mi NNW 12.7 mph 21.9 mph N/A   Clear
11:55 PM 46.9 °F - 33.4 °F 59% 30.21 in 10.0 mi NW 13.8 mph 18.4 mph N/A   Clear